Flag for United Kingdom

Past Weather in Sutton Coldfield, England, United Kingdom — Yesterday and Last 2 Weeks

Now
57 °F

Drizzle. Broken clouds.


Feels Like: 55 °F
Forecast: 53 / 44 °F
Wind: 8 mph from South

Location: Birmingham / Airport
Current Time: Sep 23, 2020 at 11:56:35 am
Latest Report: Sep 23, 2020 at 11:20 am
Visibility: 2 mi
Pressure29.50 "Hg
Humidity: 94%
Dew Point: 55 °F
Location of Sutton ColdfieldLocation

Past Weather in Sutton Coldfield — Graph

°F

Sutton Coldfield Temperature Yesterday

Maximum temperature yesterday: 72 °F (at 12:50 pm)
Minimum temperature yesterday: 52 °F (at 3:20 am)
Average temperature yesterday: 61 °F

High & Low Weather Summary for the Past Weeks

 TemperatureHumidityPressure
High82 °F (Sep 15, 2:50 pm)100% (Sep 10, 5:50 am)30.45 "Hg (Sep 10, 5:50 am)
Low45 °F (Sep 10, 4:20 am)36% (Sep 22, 1:20 pm)29.50 "Hg (Sep 23, 6:50 am)
Average60 °F76%30.12 "Hg
* Reported Sep 8 10:20 am — Sep 23 10:50 am, Sutton Coldfield. Weather by CustomWeather, © 2020

Note: Actual official high and low records may vary slightly from our data, if they occured in-between our weather recording intervals... More about our weather records

Sutton Coldfield Weather History for the Previous 24 Hours

Scroll right to see more
 ConditionsComfort  
Time TempWeatherWind HumidityBarometerVisibility
10:50 am
Wed, Sep 23
59 °FDrizzle. Mostly cloudy.9 mph82%29.50 "Hg2 mi
10:20 am57 °FPartly sunny.9 mph94%29.50 "HgN/A
9:50 am57 °FBroken clouds.8 mph94%29.50 "HgN/A
9:20 am57 °FPartly sunny.8 mph94%29.50 "HgN/A
8:50 am57 °FBroken clouds.6 mph94%29.50 "HgN/A
8:20 am57 °FPartly sunny.6 mph94%29.50 "HgN/A
7:50 am57 °FMostly cloudy.3 mph94%29.50 "Hg5 mi
7:20 am57 °FBroken clouds.5 mph94%29.50 "Hg5 mi
6:50 am57 °FPassing clouds.5 mph94%29.50 "Hg5 mi
6:20 am57 °FPassing clouds.3 mph94%29.53 "HgN/A
5:50 am57 °FPassing clouds.2 mph100%29.53 "Hg5 mi
5:20 am57 °FPassing clouds.5 mph100%29.53 "Hg5 mi
4:50 am57 °FPartly cloudy.5 mph94%29.53 "Hg4 mi
4:20 am59 °FPassing clouds.5 mph88%29.56 "HgN/A
3:50 am59 °FLight rain. Passing clouds.5 mph88%29.56 "HgN/A
3:20 am59 °FPassing clouds.6 mph88%29.56 "HgN/A
2:50 am59 °FPassing clouds.6 mph88%29.59 "HgN/A
2:20 am59 °FPassing clouds.8 mph88%29.59 "HgN/A
1:50 am59 °FPassing clouds.7 mph88%29.59 "HgN/A
1:20 am59 °FPassing clouds.6 mph88%29.59 "HgN/A
12:50 am59 °FPassing clouds.6 mph88%29.59 "HgN/A
12:20 am59 °FPassing clouds.5 mph88%29.62 "HgN/A
11:50 pm
Tue, Sep 22
59 °FPartly cloudy.7 mph88%29.62 "HgN/A
11:20 pm59 °FPassing clouds.6 mph88%29.62 "HgN/A
10:50 pm59 °FClear.7 mph88%29.62 "Hg10 mi
10:20 pm59 °FClear.6 mph88%29.65 "Hg10 mi
9:50 pm61 °FPassing clouds.6 mph83%29.65 "HgN/A
9:20 pm61 °FPassing clouds.6 mph83%29.65 "HgN/A
8:50 pm61 °FPassing clouds.7 mph77%29.65 "HgN/A
8:20 pm63 °FPassing clouds.7 mph77%29.65 "HgN/A
7:20 pm63 °FPassing clouds.7 mph77%29.65 "HgN/A
6:50 pm63 °FScattered clouds.9 mph77%29.68 "HgN/A
6:20 pm64 °FScattered clouds.8 mph78%29.68 "HgN/A
5:50 pm64 °FPartly sunny.8 mph78%29.68 "HgN/A
5:20 pm64 °FPartly sunny.12 mph78%29.68 "HgN/A
4:50 pm64 °FPartly sunny.9 mph78%29.68 "HgN/A
4:20 pm66 °FPartly sunny.10 mph73%29.71 "HgN/A
3:50 pm68 °FScattered clouds.14 mph64%29.71 "HgN/A
3:20 pm70 °FPassing clouds.13 mph60%29.71 "HgN/A
2:20 pm72 °FPassing clouds.13 mph41%29.74 "HgN/A
1:50 pm72 °FSunny.9 mph41%29.74 "Hg10 mi
1:20 pm72 °FPassing clouds.8 mph36%29.74 "HgN/A
12:50 pm72 °FPassing clouds.9 mph38%29.77 "HgN/A
12:20 pm70 °FPassing clouds.8 mph60%29.77 "HgN/A
11:50 am68 °FPassing clouds.8 mph64%29.77 "HgN/A
11:20 am68 °FPassing clouds.7 mph64%29.80 "HgN/A
Weather by CustomWeather, © 2020

See weather overview